Wind_Speed
14 15 15 16 17 17 17 18 18 19 20 21 21 22 22 22 23 23 23 23 24 23 22 22 22 23 23 23 22 22 22 22 22 22 23 23 24 24
15 15 15 16 17 17 18 18 19 19 20 21 22 22 23 23 23 24 24 24 25 24 24 24 24 25 25 24 24 24 24 24 24 24 25 25 25 26
16 16 16 16 17 17 18 19 19 19 20 21 22 22 23 23 23 24 24 24 24 24 24 25 25 26 25 25 25 26 26 25 26 26 26 25 25 26
16 17 17 17 18 18 18 19 20 20 20 21 22 22 22 22 22 22 23 24 24 24 24 25 25 26 26 26 26 27 27 26 26 26 26 26 26 27
17 17 18 18 18 18 19 19 20 20 20 20 21 21 22 22 22 22 23 25 25 25 26 26 26 26 27 27 27 27 27 27 27 27 27 28 27 27
18 19 19 19 18 19 18 19 20 20 20 20 21 21 22 22 22 22 24 25 25 26 26 27 27 26 27 28 27 27 27 27 27 27 27 27 27 27
19 19 19 20 20 19 20 20 21 21 22 22 22 22 22 22 22 23 24 24 25 26 27 27 28 28 26 26 27 27 26 26 26 27 27 27 27 27
19 19 20 20 20 21 21 21 21 22 22 23 23 23 24 24 24 23 24 25 25 26 27 27 28 27 26 25 26 26 27 26 26 26 26 26 27 28
19 20 20 20 21 21 21 21 21 22 22 23 24 24 24 24 24 24 25 25 26 27 27 27 27 27 27 26 26 26 27 27 26 27 27 27 27 29
21 20 21 22 22 22 22 21 21 22 23 23 23 24 24 25 25 24 25 26 26 27 27 26 26 26 26 26 26 25 26 26 26 26 27 27 27 28
22 21 21 21 22 23 22 22 23 23 23 24 24 24 25 25 25 25 25 25 25 26 26 26 26 26 25 26 25 25 26 26 27 27 28 27 27 27
23 23 23 22 22 22 23 23 23 24 24 25 25 25 25 25 25 25 25 25 25 25 25 25 25 25 24 24 25 25 26 26 26 27 27 28 28 28
24 24 24 23 23 22 23 23 24 24 25 25 25 25 26 26 25 25 25 26 25 25 25 25 25 25 24 24 24 25 25 26 26 27 28 28 28 29
24 24 24 24 24 23 23 24 24 24 24 24 24 25 26 25 25 24 25 26 25 24 24 24 24 24 25 24 24 25 26 27 27 27 27 27 28 28
24 24 24 24 25 25 25 25 25 24 24 24 24 24 25 25 25 25 25 24 24 24 24 24 24 24 25 25 25 26 26 27 27 27 26 27 27 27
25 25 25 24 24 24 25 25 25 25 25 24 24 25 25 25 24 24 23 23 23 24 24 25 25 26 26 26 26 27 27 27 27 27 27 27 27 27
25 25 25 25 25 25 25 25 26 26 25 25 26 26 25 25 25 24 24 24 24 24 24 25 25 25 25 25 26 26 26 26 26 27 27 27 27 27
25 25 25 25 25 25 25 25 25 26 25 25 26 25 25 25 25 25 24 25 25 25 25 26 26 26 26 26 26 27 27 27 27 27 27 27 27 27
25 25 25 25 25 25 25 25 26 26 26 26 25 24 23 24 24 24 24 25 25 25 25 26 26 27 27 26 27 28 28 27 27 27 27 26 25 25
25 25 25 25 24 24 24 25 25 25 24 24 24 24 24 24 25 25 25 25 25 25 26 26 26 27 27 27 27 27 27 27 27 26 26 25 25 24
25 24 24 24 24 24 23 24 24 24 24 24 24 25 25 24 25 25 25 25 26 26 26 27 27 27 28 27 27 27 27 27 26 25 25 25 24 24
25 24 24 24 25 24 24 25 25 25 25 24 24 24 24 24 24 25 25 25 26 26 26 26 27 27 27 27 26 26 26 26 26 25 25 25 25 23
25 25 25 25 24 24 24 25 25 25 25 24 24 24 24 24 24 25 25 25 26 26 26 26 26 26 26 25 25 26 26 25 25 25 25 25 25 24
Wind_Direction
285 283 280 277 273 269 266 265 264 263 261 260 260 261 262 264 264 265 265 264 259 258 258 256 256 256 257 259 260 261 262 263 262 260 259 259 260 261
289 286 282 279 276 272 269 266 265 264 264 262 262 262 262 264 265 265 264 262 259 259 258 257 257 258 258 259 262 262 262 262 262 261 262 263 262 262
291 290 287 281 279 277 274 270 268 267 266 264 264 263 264 265 265 264 261 260 258 257 257 258 259 260 259 260 261 262 263 263 263 262 262 263 264 263
290 290 291 288 282 278 276 273 270 269 268 267 265 266 265 266 267 265 262 260 258 257 257 258 260 260 262 262 261 263 262 262 262 261 261 263 264 264
290 289 289 289 284 280 277 275 272 270 269 267 267 267 267 266 267 267 265 262 259 258 259 259 261 263 264 263 263 263 262 262 261 261 262 264 265 263
289 288 289 288 286 283 278 274 272 270 269 269 268 268 266 267 267 267 266 264 260 258 259 259 260 263 264 263 263 264 263 261 261 262 262 263 264 263
296 293 289 287 285 284 279 276 274 272 270 271 271 269 266 267 267 267 264 264 263 262 261 260 260 262 265 263 262 264 263 260 262 264 265 264 264 262
301 297 293 289 284 284 281 278 276 274 273 272 271 270 267 266 268 268 265 264 264 264 263 263 262 262 262 264 264 263 262 261 262 264 265 264 265 263
301 298 294 289 287 285 284 283 280 278 276 273 272 270 268 269 271 270 268 266 265 264 263 263 262 262 263 264 265 263 262 263 265 266 267 266 266 265
301 298 295 291 288 287 284 283 282 280 277 276 275 273 269 269 270 274 272 269 266 265 264 263 263 262 261 263 265 265 264 263 264 266 267 267 266 266
301 298 295 291 289 287 285 283 282 282 281 279 278 277 274 271 273 274 274 270 267 266 264 264 262 261 262 263 264 264 265 264 265 266 268 268 268 267
298 297 296 293 292 290 287 284 282 281 281 281 280 278 276 274 275 274 274 272 268 265 263 262 262 261 260 262 262 264 265 265 266 267 268 268 268 267
299 297 295 293 291 290 288 284 282 281 281 281 281 281 279 277 277 278 276 275 272 266 264 262 261 261 262 264 265 266 267 267 268 269 268 269 268 267
299 297 295 291 288 288 288 285 282 281 281 280 280 280 278 277 276 275 276 274 270 266 264 263 263 264 264 265 266 267 269 269 268 269 269 268 267 268
300 297 294 293 289 288 287 286 284 282 281 280 279 278 277 276 275 272 270 269 267 265 265 265 266 267 267 267 267 267 268 269 270 269 268 268 268 268
299 296 293 293 291 290 289 289 287 284 282 280 280 279 277 276 275 272 271 270 269 267 267 268 268 268 267 268 269 268 268 269 269 268 268 268 269 269
298 296 295 293 291 290 290 290 288 285 281 280 279 279 278 275 274 272 271 271 271 270 271 271 270 269 269 269 269 269 269 270 269 268 269 270 269 268
299 296 295 294 292 289 289 290 289 287 282 281 279 279 278 275 272 271 271 272 272 272 272 272 271 270 269 269 269 270 270 271 270 268 269 269 268 267
297 296 295 294 291 289 289 289 289 287 282 280 278 276 276 276 275 272 273 274 274 273 273 273 273 271 271 270 271 271 271 271 269 268 268 268 267 266
300 298 296 296 295 292 291 291 290 288 284 279 276 275 276 277 276 274 275 274 273 273 273 272 272 272 272 273 273 273 272 270 268 268 267 267 267 266
301 299 298 297 297 294 292 292 291 289 286 282 279 278 278 277 276 275 274 273 274 274 273 272 272 271 272 273 273 273 271 269 267 266 266 265 266 265
302 299 299 299 297 296 294 293 290 288 286 284 281 279 278 278 277 275 275 274 274 274 273 272 271 272 272 272 271 271 270 268 266 265 264 264 264 263
301 301 300 299 298 297 295 294 294 290 286 283 282 281 279 278 277 276 275 275 273 273 273 272 272 272 271 270 270 269 268 267 266 265 265 265 263 261
Height
5823 5822 5822 5822 5822 5822 5822 5823 5824 5824 5824 5824 5825 5825 5826 5826 5827 5827 5828 5828 5829 5830 5831 5832 5833 5834 5835 5836 5837 5837 5837 5838 5839 5839 5839 5840 5841 5841
5819 5818 5818 5817 5817 5817 5817 5818 5818 5818 5818 5818 5819 5819 5819 5820 5820 5821 5821 5822 5823 5824 5825 5826 5827 5828 5828 5829 5830 5831 5831 5832 5832 5833 5833 5833 5834 5835
5815 5814 5813 5812 5812 5812 5812 5812 5812 5813 5813 5813 5813 5813 5814 5814 5814 5814 5814 5815 5816 5817 5818 5819 5820 5821 5821 5822 5823 5824 5824 5825 5825 5826 5826 5826 5827 5828
5810 5810 5809 5808 5807 5807 5807 5806 5807 5807 5807 5807 5807 5807 5807 5807 5807 5807 5808 5808 5809 5810 5811 5812 5812 5813 5814 5815 5816 5816 5817 5817 5818 5818 5819 5819 5820 5820
5806 5805 5804 5803 5802 5802 5801 5801 5801 5801 5801 5801 5801 5801 5801 5801 5801 5801 5801 5802 5802 5803 5804 5804 5805 5806 5807 5808 5808 5809 5809 5810 5810 5811 5811 5812 5812 5812
5801 5800 5799 5798 5797 5796 5796 5795 5795 5794 5794 5795 5794 5794 5794 5794 5795 5795 5795 5795 5795 5796 5796 5797 5798 5798 5799 5800 5801 5801 5801 5802 5802 5803 5803 5804 5804 5805
5796 5794 5793 5792 5791 5791 5790 5789 5789 5788 5788 5788 5788 5788 5788 5788 5788 5788 5788 5788 5788 5789 5789 5790 5790 5791 5792 5792 5793 5793 5793 5794 5795 5795 5796 5796 5796 5797
5791 5789 5788 5786 5786 5785 5784 5783 5783 5782 5782 5781 5781 5781 5781 5781 5781 5780 5780 5781 5781 5781 5782 5782 5782 5783 5784 5785 5785 5786 5786 5786 5787 5788 5788 5788 5789 5789
5786 5784 5782 5781 5780 5778 5777 5776 5776 5775 5775 5775 5774 5774 5774 5774 5774 5773 5773 5773 5773 5773 5774 5775 5775 5775 5776 5776 5777 5778 5778 5779 5779 5780 5780 5780 5781 5781
5780 5778 5777 5775 5774 5772 5771 5770 5769 5769 5768 5768 5768 5767 5767 5766 5766 5766 5765 5765 5765 5765 5766 5767 5767 5768 5768 5769 5769 5770 5770 5771 5771 5772 5772 5772 5772 5772
5775 5773 5771 5769 5767 5766 5765 5764 5763 5762 5761 5761 5760 5760 5759 5759 5758 5758 5757 5757 5757 5757 5758 5759 5759 5760 5761 5761 5761 5761 5762 5762 5763 5763 5763 5763 5763 5763
5769 5766 5764 5762 5761 5759 5758 5757 5756 5755 5754 5753 5753 5752 5752 5751 5750 5750 5749 5749 5749 5750 5750 5751 5751 5752 5753 5753 5753 5753 5754 5754 5754 5755 5755 5755 5754 5754
5762 5760 5758 5756 5754 5752 5751 5750 5749 5748 5747 5746 5745 5745 5744 5743 5742 5742 5742 5742 5742 5742 5742 5743 5743 5744 5745 5745 5745 5745 5745 5745 5745 5746 5746 5746 5745 5746
5755 5753 5751 5749 5747 5746 5744 5743 5742 5741 5739 5739 5738 5737 5736 5735 5735 5734 5734 5734 5734 5734 5734 5734 5735 5736 5737 5737 5737 5737 5736 5736 5736 5736 5736 5736 5736 5736
5748 5746 5743 5741 5740 5739 5737 5736 5734 5733 5732 5731 5730 5729 5728 5727 5727 5727 5726 5726 5726 5726 5726 5726 5727 5727 5728 5728 5728 5728 5728 5727 5727 5727 5727 5727 5727 5727
5741 5738 5736 5734 5733 5731 5729 5728 5726 5725 5724 5723 5722 5721 5720 5719 5719 5719 5719 5718 5719 5718 5718 5718 5718 5718 5719 5719 5719 5718 5718 5718 5718 5718 5718 5718 5718 5718
5733 5731 5729 5727 5725 5723 5722 5720 5718 5716 5715 5715 5714 5713 5712 5711 5711 5711 5711 5711 5711 5710 5710 5710 5709 5709 5709 5709 5709 5709 5709 5709 5709 5709 5709 5709 5709 5708
5726 5723 5721 5719 5717 5715 5714 5712 5710 5708 5707 5706 5705 5704 5704 5703 5703 5703 5702 5702 5702 5702 5701 5701 5701 5701 5701 5701 5700 5700 5699 5699 5699 5699 5699 5699 5700 5700
5718 5716 5713 5711 5709 5707 5706 5704 5702 5700 5699 5698 5697 5696 5695 5695 5695 5694 5694 5694 5693 5693 5692 5692 5692 5691 5692 5692 5692 5691 5690 5690 5689 5689 5690 5690 5691 5691
5711 5708 5705 5703 5701 5699 5698 5696 5694 5692 5690 5689 5688 5687 5687 5687 5686 5686 5685 5685 5684 5684 5684 5683 5683 5682 5682 5682 5682 5681 5680 5680 5680 5680 5681 5681 5682 5682
5703 5700 5698 5695 5693 5691 5690 5688 5686 5683 5682 5680 5680 5679 5678 5677 5677 5677 5676 5676 5676 5675 5675 5674 5673 5673 5672 5672 5672 5671 5671 5670 5671 5671 5672 5673 5673 5674
5696 5693 5690 5688 5686 5684 5681 5679 5677 5675 5673 5672 5671 5670 5669 5669 5668 5668 5667 5667 5667 5666 5665 5665 5664 5663 5663 5663 5662 5662 5662 5661 5661 5662 5663 5664 5664 5665
5688 5686 5683 5680 5678 5675 5673 5671 5669 5666 5664 5663 5662 5661 5660 5660 5659 5659 5658 5658 5657 5657 5656 5655 5654 5654 5654 5653 5653 5653 5653 5653 5653 5653 5654 5655 5656 5656